Location: Newark
(20.1720°N, 90.0102°W)
Time: 15:24:13
(UTC+00:00)

Envisat - Pass Details

Date: 01 September 2019
Orbit: 764 x 766 km, 98.1° (Epoch: 19 September)

Event Time Altitude Azimuth Distance (km) Brightness Sun altitude
Rises 00:58:39 0° 185° (S) 3,218 6.1 -10.6°
Reaches altitude 10° 01:01:06 10° 193° (SSW) 2,294 5.5 -11.1°
Maximum altitude 01:05:44 37° 260° (W) 1,174 4.6 -12.2°
Drops below altitude 10° 01:10:24 10° 327° (NNW) 2,299 6.2 -13.2°
Sets 01:12:52 0° 336° (NNW) 3,226 6.8 -13.8°
